Watershed II — WDF4734 — position and weather

sailwx.info

Track history (hours):
 
Tides and Currents Weather Stations Pressure Air Temp Water Temp Dewpoint Dewpoint Depression Visibility Wind Speed Wind Dir Waves Ship Positions

Watershed II

Owner: berman mr, david j, staten island, NY. More information available from US FCC via Universal Licensing System.

Last reported at 2018-Jun-22 22:38 UTC. Time now 2018-Jul-22 21:50 UTC.
Position N 26°04' W 080°08'.
Warning: this ship's position is 29 days out of date.

Date/timePositionNaut miles runAvg speedWind from/ knotsBaromVisibWave heightAir tempDewpointWater temp
2018-Jun-22 22:38N 26°04' W 080°08'0 0.0
2018-Jun-22 22:23N 26°04' W 080°08'0 0.1
2018-Jun-22 22:00N 26°04' W 080°08'2 4.3
2018-Jun-22 21:30N 26°05' W 080°07'2 3.0
2018-Jun-22 20:58N 26°04' W 080°06'1 2.2
2018-Jun-22 20:28N 26°03' W 080°05'2 4.2
2018-Jun-22 19:58N 26°05' W 080°07'2 3.0
2018-Jun-22 19:24N 26°04' W 080°08'  
2018-Jun-14 13:29N 26°04' W 080°08'1 1.8
2018-Jun-14 13:00N 26°04' W 080°07'3 5.5
2018-Jun-14 12:30N 26°07' W 080°07'1 1.3
2018-Jun-14 12:00N 26°07' W 080°06'0 0.0
2018-Jun-13 21:31N 26°07' W 080°06'0 0.0
2018-Jun-13 21:13N 26°07' W 080°06'0 0.0
2018-Jun-13 20:49N 26°07' W 080°06'0 0.0
2018-Jun-13 17:52N 26°07' W 080°06'0 0.0
2018-Jun-13 17:19N 26°07' W 080°06'0 0.0
2018-Jun-13 16:49N 26°07' W 080°06'0 0.0
2018-Jun-13 16:25N 26°07' W 080°06'0 0.0
2018-Jun-13 15:55N 26°07' W 080°06'0 0.0
2018-Jun-13 15:10N 26°07' W 080°06'0 0.0
2018-Jun-13 14:10N 26°07' W 080°06'0 2.3
2018-Jun-13 14:00N 26°07' W 080°07'3 5.0
2018-Jun-13 13:30N 26°04' W 080°07'1 2.2
2018-Jun-13 12:55N 26°04' W 080°08'0 0.0
2018-Jun-13 12:25N 26°04' W 080°08'0 0.0
2018-Jun-13 11:55N 26°04' W 080°08'  
Track history (hours):
 
Tides and Currents Weather Stations Pressure Air Temp Water Temp Dewpoint Dewpoint Depression Visibility Wind Speed Wind Dir Waves Ship Positions

Watershed II

Owner: berman mr, david j, staten island, NY. More information available from US FCC via Universal Licensing System.

Last reported at 2018-Jun-22 22:38 UTC. Time now 2018-Jul-22 21:50 UTC.
Position N 26°04' W 080°08'.
Warning: this ship's position is 29 days out of date.

Date/timePositionNaut miles runAvg speedWind from/ knotsBaromVisibWave heightAir tempDewpointWater temp
2018-Jun-22 22:38N 26°04' W 080°08'0 0.0
2018-Jun-22 22:23N 26°04' W 080°08'0 0.1
2018-Jun-22 22:00N 26°04' W 080°08'2 4.3
2018-Jun-22 21:30N 26°05' W 080°07'2 3.0
2018-Jun-22 20:58N 26°04' W 080°06'1 2.2
2018-Jun-22 20:28N 26°03' W 080°05'2 4.2
2018-Jun-22 19:58N 26°05' W 080°07'2 3.0
2018-Jun-22 19:24N 26°04' W 080°08'  
2018-Jun-14 13:29N 26°04' W 080°08'1 1.8
2018-Jun-14 13:00N 26°04' W 080°07'3 5.5
2018-Jun-14 12:30N 26°07' W 080°07'1 1.3
2018-Jun-14 12:00N 26°07' W 080°06'0 0.0
2018-Jun-13 21:31N 26°07' W 080°06'0 0.0
2018-Jun-13 21:13N 26°07' W 080°06'0 0.0
2018-Jun-13 20:49N 26°07' W 080°06'0 0.0
2018-Jun-13 17:52N 26°07' W 080°06'0 0.0
2018-Jun-13 17:19N 26°07' W 080°06'0 0.0
2018-Jun-13 16:49N 26°07' W 080°06'0 0.0
2018-Jun-13 16:25N 26°07' W 080°06'0 0.0
2018-Jun-13 15:55N 26°07' W 080°06'0 0.0
2018-Jun-13 15:10N 26°07' W 080°06'0 0.0
2018-Jun-13 14:10N 26°07' W 080°06'0 2.3
2018-Jun-13 14:00N 26°07' W 080°07'3 5.0
2018-Jun-13 13:30N 26°04' W 080°07'1 2.2
2018-Jun-13 12:55N 26°04' W 080°08'0 0.0
2018-Jun-13 12:25N 26°04' W 080°08'0 0.0
2018-Jun-13 11:55N 26°04' W 080°08'  

Dump ship's entire track history